FW4517 Weather Reports


Display with metric or nautical units.
time (UTC)temp
F
wind
direction
speed
MPH
gust
MPH
rain 1hr
in
rain 24hr
in
rain mn
in
humidity
%
barometer
mb
20260906213924 82 306 1.0 5.0 0.00 0.00 0.00 40 1017.0
20260906212913 82 310 0.0 4.0 0.00 0.00 0.00 40 1017.2
20260906210823 83 314 1.0 5.0 0.00 0.00 0.00 37 1017.4
20260906205824 85 309 1.0 5.0 0.00 0.00 0.00 35 1017.5
20260906204827 85 301 2.0 8.0 0.00 0.00 0.00 35 1017.6
20260906203811 86 307 2.0 8.0 0.00 0.00 0.00 35 1017.8
20260906202816 84 303 2.0 6.0 0.00 0.00 0.00 38 1017.8
20260906200632 85 294 1.0 6.0 0.00 0.00 0.00 36 1018.1
20260906195626 86 304 1.0 6.0 0.00 0.00 0.00 38 1018.1
20260906194620 84 316 1.0 6.0 0.00 0.00 0.00 38 1018.2
20260906193615 85 309 1.0 5.0 0.00 0.00 0.00 37 1018.4
20260906192622 85 300 2.0 5.0 0.00 0.00 0.00 39 1018.6
20260906191645 85 297 2.0 5.0 0.00 0.00 0.00 38 1018.7
20260906190627 84 5 2.0 5.0 0.00 0.00 0.00 39 1018.9
20260906185651 84 292 1.0 5.0 0.00 0.00 0.00 37 1019.1
20260906184627 83 311 1.0 7.0 0.00 0.00 0.00 40 1019.2
20260906182512 82 307 1.0 4.0 0.00 0.00 0.00 39 1019.8
20260906180412 81 293 0.0 4.0 0.00 0.00 0.00 39 1020.2
20260906175433 82 286 0.0 4.0 0.00 0.00 0.00 38 1020.5
20260906174441 82 302 0.0 0.0 0.00 0.00 0.00 38 1020.6
20260906173408 81 252 0.0 1.0 0.00 0.00 0.00 37 1020.7
20260906172413 81 289 0.0 2.0 0.00 0.00 0.00 38 1020.9
20260906171359 79 248 0.0 1.0 0.00 0.00 0.00 42 1021.1
20260906170353 79 302 0.0 1.0 0.00 0.00 0.00 39 1021.2
20260906164250 78 295 0.0 1.0 0.00 0.00 0.00 41 1021.2
20260906163235 77 300 0.0 0.0 0.00 0.00 0.00 44 1021.3
20260906162210 75 296 0.0 0.0 0.00 0.00 0.00 45 1021.4
20260906161201 76 262 0.0 0.0 0.00 0.00 0.00 45 1021.6
20260906160126 75 288 0.0 0.0 0.00 0.00 0.00 44 1021.5
20260906155131 74 327 0.0 0.0 0.00 0.00 0.00 48 1021.4
20260906154131 72 327 0.0 0.0 0.00 0.00 0.00 49 1021.2
20260906153108 71 254 0.0 0.0 0.00 0.00 0.00 49 1021.3
20260906152036 70 254 0.0 2.0 0.00 0.00 0.00 52 1021.3
20260906151007 69 254 0.0 2.0 0.00 0.00 0.00 53 1021.4
20260906150010 68 276 0.0 0.0 0.00 0.00 0.00 57 1021.3
20260906144946 68 292 0.0 0.0 0.00 0.00 0.00 57 1021.3
20260906143919 66 292 0.0 0.0 0.00 0.00 0.00 61 1021.3
20260906141755 64 262 0.0 2.0 0.00 0.00 0.00 73 1021.3
20260906135619 61 292 0.0 0.0 0.00 0.00 0.00 83 1021.3
20260906134553 60 292 0.0 0.0 0.00 0.00 0.00 84 1021.2
20260906132440 59 300 0.0 0.0 0.00 0.00 0.00 82 1020.9
20260906131443 59 300 0.0 0.0 0.00 0.00 0.00 82 1020.8
20260906130442 59 300 0.0 0.0 0.00 0.00 0.00 77 1020.9
20260906125425 58 300 0.0 0.0 0.00 0.00 0.00 77 1020.9
20260906124444 58 300 0.0 0.0 0.00 0.00 0.00 74 1020.8
20260906123431 58 300 0.0 0.0 0.00 0.00 0.00 74 1020.7
20260906122358 59 301 0.0 0.0 0.00 0.00 0.00 70 1020.6
20260906121327 59 264 0.0 1.0 0.00 0.00 0.00 67 1020.6
20260906120300 59 242 0.0 2.0 0.00 0.00 0.00 66 1020.7
20260906115306 59 240 0.0 0.0 0.00 0.00 0.00 66 1020.6
20260906114239 60 240 0.0 1.0 0.00 0.00 0.00 64 1020.8
20260906112120 60 285 0.0 0.0 0.00 0.00 0.00 65 1020.6
20260906105941 60 230 0.0 0.0 0.00 0.00 0.00 64 1020.4
20260906104938 60 229 0.0 0.0 0.00 0.00 0.00 63 1020.4
20260906103946 61 230 0.0 0.0 0.00 0.00 0.00 62 1020.5
20260906101853 61 230 0.0 0.0 0.00 0.00 0.00 60 1020.2
20260906100844 62 229 0.0 0.0 0.00 0.00 0.00 59 1020.2
20260906095848 62 230 0.0 0.0 0.00 0.00 0.00 58 1020.3
20260906094910 62 307 0.0 0.0 0.00 0.00 0.00 59 1020.3
20260906093915 62 314 0.0 0.0 0.00 0.00 0.00 59 1020.2
20260906092900 61 314 0.0 0.0 0.00 0.00 0.00 62 1020.2
20260906091857 61 314 0.0 0.0 0.00 0.00 0.00 61 1020.3
20260906090843 61 314 0.0 0.0 0.00 0.00 0.00 61 1020.2
20260906085853 62 314 0.0 0.0 0.00 0.00 0.00 59 1020.2
20260906084834 63 314 0.0 0.0 0.00 0.00 0.00 57 1020.1
20260906082644 61 314 0.0 0.0 0.00 0.00 0.00 61 1020.1
20260906081633 62 314 0.0 0.0 0.00 0.00 0.00 60 1020.3
20260906080616 63 314 0.0 0.0 0.00 0.00 0.00 59 1020.3
20260906075620 63 239 0.0 0.0 0.00 0.00 0.00 60 1020.3
20260906074556 63 239 0.0 0.0 0.00 0.00 0.00 58 1020.3
20260906073532 64 239 0.0 0.0 0.00 0.00 0.00 58 1020.3
20260906072538 65 239 0.0 0.0 0.00 0.00 0.00 56 1020.2
20260906071556 65 244 0.0 2.0 0.00 0.00 0.00 56 1020.2
20260906070611 66 283 0.0 2.0 0.00 0.00 0.00 54 1020.1
20260906065630 66 262 0.0 0.0 0.00 0.00 0.00 53 1020.1
20260906064645 67 262 0.0 0.0 0.00 0.00 0.00 50 1020.0
20260906063653 68 298 0.0 0.0 0.00 0.00 0.00 50 1020.1
20260906061508 68 317 0.0 1.0 0.00 0.00 0.00 53 1020.2
20260906060503 68 297 0.0 0.0 0.00 0.00 0.00 51 1020.3
20260906055503 69 231 0.0 3.0 0.00 0.00 0.00 52 1020.5
20260906054428 69 320 0.0 6.0 0.00 0.00 0.00 49 1020.5
20260906053437 69 86 0.0 6.0 0.00 0.00 0.00 50 1020.5
20260906052403 71 309 1.0 7.0 0.00 0.00 0.00 46 1020.7
20260906050305 71 303 0.0 0.0 0.00 0.00 0.00 49 1020.7
20260906045306 71 303 0.0 0.0 0.00 0.00 0.00 52 1020.6
20260906044236 72 303 0.0 0.0 0.00 0.00 0.00 54 1020.7
20260906043221 72 303 0.0 0.0 0.00 0.00 0.00 54 1020.7
20260906042200 72 303 0.0 0.0 0.00 0.00 0.00 52 1020.7
20260906041225 72 303 0.0 1.0 0.00 0.00 0.00 46 1020.7
20260906035102 75 314 1.0 5.0 0.00 0.00 0.00 41 1020.7
20260906034047 75 316 1.0 5.0 0.00 0.00 0.00 38 1020.5
20260906033022 74 309 0.0 4.0 0.00 0.00 0.00 39 1020.5
20260906032006 74 327 0.0 0.0 0.00 0.00 0.00 37 1020.0
20260906031009 75 328 0.0 0.0 0.00 0.00 0.00 35 1019.6
20260906025958 74 335 0.0 2.0 0.00 0.00 0.00 36 1019.4
20260906023837 74 321 0.0 0.0 0.00 0.00 0.00 36 1019.2
20260906022824 74 309 0.0 0.0 0.00 0.00 0.00 35 1019.0
20260906020632 72 309 0.0 0.0 0.00 0.00 0.00 37 1018.9
20260906015615 72 309 0.0 0.0 0.00 0.00 0.00 38 1018.8
20260906013427 74 309 0.0 0.0 0.00 0.00 0.00 35 1018.6
20260906012435 75 309 0.0 0.0 0.00 0.00 0.00 34 1018.6
20260906011438 76 309 0.0 0.0 0.00 0.00 0.00 34 1018.6
20260906010431 77 309 0.0 0.0 0.00 0.00 0.00 33 1018.5
20260906005426 79 309 0.0 0.0 0.00 0.00 0.00 32 1018.6
20260906004433 80 309 0.0 0.0 0.00 0.00 0.00 32 1018.6
20260906003404 82 309 0.0 0.0 0.00 0.00 0.00 30 1018.6
20260906002410 83 309 0.0 0.0 0.00 0.00 0.00 28 1018.6
20260906001428 84 273 0.0 3.0 0.00 0.00 0.00 27 1018.6
20260906000425 85 248 0.0 1.0 0.00 0.00 0.00 28 1018.5
20260905235353 85 272 0.0 3.0 0.00 0.00 0.00 27 1018.4
20260905234333 86 310 0.0 3.0 0.00 0.00 0.00 27 1018.4
20260905233347 86 307 0.0 5.0 0.00 0.00 0.00 25 1018.3
20260905232315 86 301 0.0 0.0 0.00 0.00 0.00 25 1018.4
20260905231308 86 293 0.0 1.0 0.00 0.00 0.00 26 1018.4
20260905230256 84 302 0.0 1.0 0.00 0.00 0.00 29 1018.4
20260905224117 84 302 0.0 1.0 0.00 0.00 0.00 28 1018.4
20260905221941 85 307 0.0 4.0 0.00 0.00 0.00 27 1018.5
20260905215807 85 319 0.0 3.0 0.00 0.00 0.00 29 1018.6